This demonstration page uses our WeatherBlox Daily Observations layout. Learn more.

38.88101, -77.10428

Hourly Observations for April 26, 2018

Temp ( °F °C ) Dew Point ( °F °C ) Humidity (%) Winds ( mph kmh ) Pressure ( in mb ) Visibility ( mi km ) Precip ( " mm )
12:52 am 00:52 Mostly Clear 60 15.6 50 10 70 70 NNW 12 19 29.74 1007 10 16.0934 0 0
1:52 am 01:52 Mostly Clear 59 15 48 8.9 67 67 NW 13 20 29.75 1008 10 16.0934 0 0
2:52 am 02:52 Mostly Clear 57 13.9 45 7.2 64 64 NW 16 26 29.78 1008 10 16.0934 0 0
3:52 am 03:52 Clear 54 12.2 41 5 62 62 WNW 3 6 29.81 1010 10 16.0934 0 0
4:52 am 04:52 Mostly Clear 53 11.7 38 3.3 57 57 WNW 7 11 29.83 1010 10 16.0934 0 0
5:52 am 05:52 Mostly Cloudy 50 10 38 3.3 63 63 W 3 6 29.82 1010 10 16.0934 0 0
6:52 am 06:52 Partly Cloudy 51 10.6 37 2.8 59 59 WNW 8 13 29.83 1010 10 16.0934 0 0
7:52 am 07:52 Mostly Cloudy 54 12.2 37 2.8 53 53 NW 10 17 29.86 1011 10 16.0934 0 0
8:52 am 08:52 Mostly Cloudy 55 12.8 37 2.8 51 51 WNW 13 20 29.88 1012 10 16.0934 0 0
9:52 am 09:52 Mostly Cloudy 58 14.4 38 3.3 48 48 NW 10 17 29.88 1012 10 16.0934 0 0
10:52 am 10:52 Mostly Cloudy 61 16.1 38 3.3 43 43 WNW 13 20 29.88 1012 10 16.0934 0 0
11:52 am 11:52 Partly Cloudy 62 16.7 38 3.3 41 41 WNW 17 28 29.88 1012 10 16.0934 0 0
12:52 pm 12:52 Mostly Sunny 65 18.3 38 3.3 37 37 NNW 14 22 29.87 1012 10 16.0934 0 0
1:52 pm 13:52 Mostly Sunny 68 20 37 2.8 32 32 NW 12 19 29.86 1011 10 16.0934 0 0
2:52 pm 14:52 Mostly Sunny 71 21.7 38 3.3 30 30 W 9 15 29.85 1011 10 16.0934 0 0
3:52 pm 15:52 Mostly Sunny 71 21.7 36 2.2 28 28 WNW 8 13 29.84 1010 10 16.0934 0 0
4:52 pm 16:52 Mostly Sunny 72 22.2 36 2.2 27 27 W 9 15 29.83 1010 10 16.0934 0 0
5:52 pm 17:52 Partly Cloudy 72 22.2 35 1.7 26 26 WNW 8 13 29.83 1010 10 16.0934 0 0
6:52 pm 18:52 Mostly Cloudy 69 20.6 36 2.2 30 30 SSE 5 7 29.83 1010 10 16.0934 0 0
7:20 pm 19:20 Mostly Cloudy 67 19.4 42 5.6 41 41 SE 3 6 29.83 1010 10 16.0934 0 0
7:52 pm 19:52 Cloudy 68 20 37 2.8 32 32 Calm 29.84 1011 10 16.0934 0 0
8:52 pm 20:52 Cloudy 64 17.8 44 6.7 48 48 ENE 6 9 29.85 1011 10 16.0934 0 0
9:52 pm 21:52 Cloudy 64 17.8 40 4.4 41 41 SE 10 17 29.87 1011 10 16.0934 0 0
10:52 pm 22:52 Cloudy 62 16.7 44 6.7 52 52 Calm 29.85 1011 10 16.0934 0 0
11:52 pm 23:52 Cloudy 62 16.7 43 6.1 50 50 ESE 5 7 29.85 1011 10 16.0934 0 0

Powered by AerisWeather